This is the latest recevied weather packets stored in our database for station/object K0SNA. If no packets are shown the sender has not sent any weather packets the latest 10 day(s).
| Time | Temp. | Humidity | Pressure | Rain* | Wind** | Luminosity | Snow |
|---|---|---|---|---|---|---|---|
| 1777934260 | 12.78° C | 42% | 1003.2 hPa | 0 mm | - | 132 W/m² | - |
| 1777933955 | 13.33° C | 41% | 1003.1 hPa | 0 mm | - | 130 W/m² | - |
| 1777933653 | 13.89° C | 39% | 1002.8 hPa | 0 mm | - | 198 W/m² | - |
| 1777933349 | 13.89° C | 40% | 1002.7 hPa | 0 mm | - | 195 W/m² | - |
| 1777933047 | 13.89° C | 39% | 1002.6 hPa | 0 mm | - | 337 W/m² | - |
| 1777932744 | 13.33° C | 41% | 1002.5 hPa | 0 mm | - | 252 W/m² | - |
| 1777932440 | 13.89° C | 40% | 1002.4 hPa | 0 mm | - | 181 W/m² | - |
| 1777932138 | 13.89° C | 39% | 1002.4 hPa | 0 mm | - | 405 W/m² | - |
| 1777931834 | 13.89° C | 41% | 1002.4 hPa | 0 mm | - | 314 W/m² | - |
| 1777931532 | 13.89° C | 40% | 1002.3 hPa | 0 mm | - | 143 W/m² | - |
| 1777931227 | 13.89° C | 41% | 1002.4 hPa | 0 mm | - | 475 W/m² | - |
| 1777930924 | 13.89° C | 41% | 1002.1 hPa | 0 mm | - | 326 W/m² | - |
| 1777930621 | 13.89° C | 40% | 1001.9 hPa | 0 mm | - | 181 W/m² | - |
| 1777930317 | 13.89° C | 39% | 1001.8 hPa | 0 mm | - | 193 W/m² | - |
| 1777930014 | 14.44° C | 38% | 1001.9 hPa | 0 mm | - | 247 W/m² | - |
| 1777929710 | 14.44° C | 38% | 1001.9 hPa | 0 mm | - | 430 W/m² | - |
| 1777929408 | 15° C | 38% | 1001.9 hPa | 0 mm | - | 455 W/m² | - |
| 1777929104 | 14.44° C | 39% | 1001.7 hPa | 0 mm | - | 504 W/m² | - |
| 1777928802 | 15° C | 38% | 1001.7 hPa | 0 mm | - | 321 W/m² | - |
| 1777928498 | 15.56° C | 38% | 1001.6 hPa | 0 mm | - | 523 W/m² | - |
| 1777928196 | 15.56° C | 38% | 1001.7 hPa | 0 mm | - | 549 W/m² | - |
| 1777927893 | 14.44° C | 38% | 1001.4 hPa | 0 mm | - | 594 W/m² | - |
| 1777927592 | 15° C | 38% | 1001.6 hPa | 0 mm | - | 289 W/m² | - |
| 1777927290 | 15° C | 38% | 1001.6 hPa | 0 mm | - | 586 W/m² | - |
| 1777926988 | 15° C | 38% | 1001.1 hPa | 0 mm | - | 647 W/m² | - |
* Rain latest hour (hover to see other rain measurements)
** Current wind speed in m/s (hover to see current wind gust speed)